Copper Mountain, CO

10:15 PM MDT on July 22, 2017 (GMT -0600)
Copper Mountain

Weather History for KCCU - March, 2014

Change the Weather History Date:

Saturday, March 22, 2014

  Actual Average Record
Temperature  
Mean Temperature 21 °F -  
Max Temperature 28 °F - 45 °F (2017)
Min Temperature 14 °F - 8 °F (2006)
Degree Days  
Heating Degree Days 44    
Month to date heating degree days  
Cooling Degree Days 0    
Month to date cooling degree days  
Moisture  
Dew Point 15 °F    
Average Humidity 76    
Maximum Humidity 80    
Minimum Humidity 64    
Precipitation  
Precipitation 0.00 in - 0.00 in (2017)
Sea Level Pressure  
Sea Level Pressure 30.04 in    
Wind  
Wind Speed 15 mph (SW)    
Max Wind Speed 25 mph    
Max Gust Speed 34 mph    
Visibility 2 miles    
Events Snow    
T = Trace of Precipitation, MM = Missing Value Source: NWS Daily Summary

Daily Weather History Graph

Daily Weather History Graph

Search for Another Location

Airport or City:

Trip Planner

Search our weather history database for the weather conditions in past years. The results will help you decide how hot, cold, wet, or windy it might be!

Date:

Astronomy

Mar. 22, 2014 Rise Set
Actual Time 7:04 AM MDT 7:18 PM MDT
Civil Twilight 6:37 AM MDT 7:45 PM MDT
Nautical Twilight 6:06 AM MDT 8:17 PM MDT
Astronomical Twilight 5:34 AM MDT 8:49 PM MDT
Moon 12:39 AM MDT (3/22) 10:52 AM MDT (3/22)
Length of Visible Light 13h 07m
Length of Day
12h 13m
Waning Gibbous, 65% of the Moon is Illuminated
Mar 22
Waning Gibbous
Mar 23
Last Quarter
Mar 30
New
Apr 7
First Quarter
Apr 15
Full

Hourly Weather History & Observations

Time (MDT) Temp. Windchill Dew Point Humidity Pressure Visibility Wind Dir Wind Speed Gust Speed Precip Events Conditions
12:16 AM 24.8 °F 14.6 °F 17.6 °F 74% 30.05 in 1.8 mi SSW 10.4 mph 23.0 mph N/A Snow Light Snow
12:36 AM 24.8 °F 13.4 °F 17.6 °F 74% 30.05 in 1.8 mi South 12.7 mph 24.2 mph N/A Snow Light Snow
12:56 AM 24.8 °F 14.6 °F 17.6 °F 74% 30.04 in 2.0 mi SSW 10.4 mph 23.0 mph N/A Snow Light Snow
1:16 AM 24.8 °F 14.0 °F 17.6 °F 74% 30.03 in 2.0 mi South 11.5 mph 21.9 mph N/A Snow Light Snow
1:36 AM 23.0 °F 9.6 °F 17.6 °F 80% 30.03 in 0.8 mi South 16.1 mph 24.2 mph N/A Snow Light Snow
1:56 AM 23.0 °F 10.6 °F 17.6 °F 80% 30.03 in 1.8 mi South 13.8 mph 20.7 mph N/A Snow Light Snow
2:16 AM 23.0 °F 11.7 °F 17.6 °F 80% 30.02 in 2.0 mi South 11.5 mph 23.0 mph N/A Snow Light Snow
2:36 AM 23.0 °F 11.1 °F 15.8 °F 74% 30.01 in 2.0 mi South 12.7 mph 20.7 mph N/A Snow Light Snow
2:56 AM 23.0 °F 11.7 °F 15.8 °F 74% 30.01 in 1.5 mi SSW 11.5 mph 21.9 mph N/A Snow Light Snow
3:16 AM 23.0 °F 11.7 °F 14.0 °F 68% 29.99 in 1.5 mi South 11.5 mph 23.0 mph N/A Snow Light Snow
3:36 AM 23.0 °F 8.0 °F 15.8 °F 74% 29.99 in 1.2 mi South 20.7 mph 24.2 mph N/A Snow Light Snow
3:56 AM 23.0 °F 7.2 °F 15.8 °F 74% 29.98 in 0.8 mi South 23.0 mph - N/A Snow Light Snow
4:16 AM 23.0 °F 8.7 °F 15.8 °F 74% 29.98 in 1.5 mi South 18.4 mph 25.3 mph N/A Snow Light Snow
4:36 AM 23.0 °F 11.1 °F 15.8 °F 74% 29.97 in 1.5 mi South 12.7 mph 23.0 mph N/A Snow Light Snow
4:56 AM 23.0 °F 9.2 °F 15.8 °F 74% 29.98 in 1.8 mi South 17.3 mph 24.2 mph N/A Snow Light Snow
5:16 AM 23.0 °F 8.0 °F 15.8 °F 74% 29.98 in 1.2 mi South 20.7 mph 25.3 mph N/A Snow Light Snow
5:36 AM 23.0 °F 7.6 °F 15.8 °F 74% 29.98 in 1.2 mi South 21.9 mph - N/A Snow Light Snow
5:56 AM 23.0 °F 8.7 °F 15.8 °F 74% 29.97 in 1.0 mi South 18.4 mph 26.5 mph N/A Snow Light Snow
6:16 AM 23.0 °F 8.0 °F 15.8 °F 74% 29.97 in 0.8 mi South 20.7 mph 25.3 mph N/A Snow Light Snow
6:36 AM 23.0 °F 7.6 °F 15.8 °F 74% 29.97 in 0.5 mi South 21.9 mph 27.6 mph N/A Snow Light Snow
6:56 AM 23.0 °F 7.2 °F 15.8 °F 74% 29.98 in 1.0 mi South 23.0 mph - N/A Snow Light Snow
7:16 AM 23.0 °F 8.0 °F 17.6 °F 80% 29.98 in 1.0 mi South 20.7 mph - N/A Snow Light Snow
7:36 AM 23.0 °F 7.2 °F 15.8 °F 74% 29.98 in 0.8 mi South 23.0 mph 26.5 mph N/A Snow Light Snow
7:56 AM 23.0 °F 7.2 °F 14.0 °F 68% 29.98 in 1.2 mi South 23.0 mph - N/A Snow Light Snow
8:16 AM 23.0 °F 8.0 °F 14.0 °F 68% 29.98 in 0.5 mi SSE 20.7 mph 25.3 mph N/A Snow Snow
8:36 AM 23.0 °F 7.6 °F 15.8 °F 74% 29.97 in 0.2 mi SSE 21.9 mph 29.9 mph N/A Snow Snow
8:56 AM 23.0 °F 7.2 °F 15.8 °F 74% 29.98 in 0.5 mi South 23.0 mph 28.8 mph N/A Snow Light Snow
9:16 AM 23.0 °F 7.2 °F 15.8 °F 74% 29.98 in 0.8 mi South 23.0 mph 32.2 mph N/A Snow Light Snow
9:36 AM 24.8 °F 10.7 °F 17.6 °F 74% 29.98 in 0.5 mi South 19.6 mph 32.2 mph N/A Snow Light Snow
9:56 AM 24.8 °F 10.7 °F 17.6 °F 74% 29.98 in 0.5 mi South 19.6 mph 33.4 mph N/A Snow Light Snow
10:16 AM 24.8 °F 11.9 °F 17.6 °F 74% 29.98 in 0.2 mi SSW 16.1 mph 34.5 mph N/A Snow Light Snow
10:36 AM 24.8 °F 11.9 °F 17.6 °F 74% 29.98 in 0.5 mi SSW 16.1 mph 28.8 mph N/A Snow Light Snow
10:56 AM 24.8 °F 14.0 °F 17.6 °F 74% 29.98 in 0.5 mi SSW 11.5 mph 25.3 mph N/A Snow Light Snow
11:16 AM 24.8 °F 14.6 °F 17.6 °F 74% 29.98 in 1.0 mi SSW 10.4 mph 27.6 mph N/A Snow Light Snow
11:36 AM 24.8 °F 11.1 °F 17.6 °F 74% 29.98 in 1.5 mi SW 18.4 mph 28.8 mph N/A Snow Light Snow
11:56 AM 26.6 °F 14.7 °F 17.6 °F 69% 29.98 in 1.0 mi WSW 15.0 mph 28.8 mph N/A Snow Light Snow
12:16 PM 28.4 °F 19.1 °F 17.6 °F 64% 29.98 in 2.5 mi SW 10.4 mph 20.7 mph N/A Snow Light Snow
12:36 PM 26.6 °F 16.8 °F 19.4 °F 74% 29.99 in 1.0 mi WSW 10.4 mph 17.3 mph N/A Snow Light Snow
12:56 PM 23.0 °F - 17.6 °F 80% 29.98 in 0.2 mi North - - N/A Snow Heavy Snow
1:16 PM 23.0 °F - 17.6 °F 80% 29.99 in 0.2 mi North - - N/A Snow Snow
1:36 PM 23.0 °F - 17.6 °F 80% 30.00 in 0.2 mi North - - N/A Snow Heavy Snow
1:56 PM 23.0 °F 8.7 °F 17.6 °F 80% 30.01 in 0.2 mi West 18.4 mph 27.6 mph N/A Snow Light Snow
2:16 PM 23.0 °F 9.2 °F 17.6 °F 80% 30.02 in 0.8 mi West 17.3 mph - N/A Snow Light Snow
2:36 PM 23.0 °F 8.7 °F 17.6 °F 80% 30.02 in 0.8 mi West 18.4 mph - N/A Snow Light Snow
2:56 PM 23.0 °F 8.7 °F 17.6 °F 80% 30.02 in 0.5 mi West 18.4 mph - N/A Snow Light Snow
3:16 PM 21.2 °F - 14.0 °F 74% 30.03 in 0.2 mi North - - N/A Snow Snow
3:36 PM 19.4 °F 2.8 °F 14.0 °F 80% 30.05 in 0.5 mi West 21.9 mph - N/A Snow Light Snow
3:56 PM 19.4 °F 2.5 °F 14.0 °F 80% 30.05 in 0.2 mi WNW 23.0 mph 27.6 mph N/A Snow Snow
4:16 PM 19.4 °F 2.8 °F 14.0 °F 80% 30.05 in 0.8 mi WNW 21.9 mph 28.8 mph N/A Snow Light Snow
4:36 PM 19.4 °F 4.1 °F 14.0 °F 80% 30.07 in 2.0 mi West 18.4 mph 25.3 mph N/A Snow Light Snow
4:56 PM 19.4 °F 4.1 °F 14.0 °F 80% 30.08 in 4.0 mi West 18.4 mph - N/A Snow Light Snow
5:16 PM 19.4 °F 5.5 °F 14.0 °F 80% 30.09 in 3.0 mi West 15.0 mph 20.7 mph N/A Snow Light Snow
5:36 PM 19.4 °F 5.5 °F 14.0 °F 80% 30.10 in 1.0 mi West 15.0 mph 23.0 mph N/A Snow Light Snow
5:56 PM 19.4 °F 4.1 °F 14.0 °F 80% 30.10 in 3.0 mi West 18.4 mph - N/A Snow Light Snow
6:16 PM 19.4 °F 4.5 °F 14.0 °F 80% 30.11 in 4.0 mi West 17.3 mph 27.6 mph N/A Snow Light Snow
6:36 PM 19.4 °F 5.5 °F 14.0 °F 80% 30.12 in 5.0 mi West 15.0 mph - N/A Snow Light Snow
6:56 PM 19.4 °F 6.0 °F 14.0 °F 80% 30.12 in 5.0 mi West 13.8 mph 21.9 mph N/A Snow Light Snow
7:16 PM 17.6 °F 0.9 °F 12.2 °F 79% 30.12 in 3.0 mi West 20.7 mph 27.6 mph N/A Snow Light Snow
7:36 PM 17.6 °F -0.6 °F 12.2 °F 79% 30.12 in 2.5 mi West 25.3 mph - N/A Snow Light Snow
7:56 PM 17.6 °F -0.3 °F 10.4 °F 73% 30.12 in 5.0 mi West 24.2 mph 29.9 mph N/A Snow Light Snow
8:16 PM 17.6 °F -0.3 °F 10.4 °F 73% 30.14 in 7.0 mi West 24.2 mph - N/A Snow Light Snow
8:36 PM 15.8 °F 0.3 °F 10.4 °F 79% 30.16 in 7.0 mi West 16.1 mph - N/A Snow Light Snow
8:56 PM 15.8 °F 2.7 °F 10.4 °F 79% 30.17 in 10.0 mi West 11.5 mph - N/A   Overcast
9:16 PM 15.8 °F 8.6 °F 10.4 °F 79% 30.18 in 1.5 mi WSW 4.6 mph - N/A Snow Light Snow
9:36 PM 14.0 °F 3.9 °F 8.6 °F 79% 30.18 in 2.5 mi WSW 6.9 mph - N/A Snow Light Snow
9:56 PM 15.8 °F 5.1 °F 8.6 °F 73% 30.18 in 1.0 mi SSW 8.1 mph - N/A Snow Light Snow
10:16 PM 14.0 °F 3.9 °F 8.6 °F 79% 30.18 in 10.0 mi SW 6.9 mph - N/A   Scattered Clouds
10:36 PM 14.0 °F 1.2 °F 8.6 °F 79% 30.19 in 10.0 mi West 10.4 mph 16.1 mph N/A   Clear
10:56 PM 14.0 °F 0.5 °F 8.6 °F 79% 30.19 in 10.0 mi WSW 11.5 mph - N/A   Clear
11:16 PM 14.0 °F 2.0 °F 8.6 °F 79% 30.19 in 10.0 mi West 9.2 mph - N/A   Clear
11:36 PM 14.0 °F 2.0 °F 6.8 °F 73% 30.19 in 10.0 mi SW 9.2 mph - N/A   Clear
11:56 PM 14.0 °F 1.2 °F 8.6 °F 79% 30.19 in 10.0 mi WSW 10.4 mph - N/A   Clear